Fort Bridger AP, Fort Bridger, WY

7:00 PM MDT on April 29, 2017 (GMT -0600)
Fort Bridger

Weather History for KFBR - May, 2014

Change the Weather History Date:

Friday, May 9, 2014

  Actual Average (KEVW) Record (KEVW)
Temperature  
Mean Temperature 42 °F -  
Max Temperature 51 °F 54 °F 71 °F (2001)
Min Temperature 32 °F 32 °F 19 °F (2002)
Degree Days  
Heating Degree Days 24    
Moisture  
Dew Point 34 °F    
Average Humidity 75    
Maximum Humidity 100    
Minimum Humidity 51    
Precipitation  
Precipitation 0.00 in - - ()
Sea Level Pressure  
Sea Level Pressure 29.96 in    
Wind  
Wind Speed 16 mph (WSW)    
Max Wind Speed 32 mph    
Max Gust Speed 46 mph    
Visibility 9 miles    
Events Fog , Rain , Snow    
Averages and records for this station are not official NWS values.
T = Trace of Precipitation, MM = Missing Value Source: NWS Daily Summary

Daily Weather History Graph

Daily Weather History Graph

Search for Another Location

Airport or City:

Trip Planner

Search our weather history database for the weather conditions in past years. The results will help you decide how hot, cold, wet, or windy it might be!

Date:

Astronomy

May. 09, 2014 Rise Set
Actual Time 6:09 AM MDT 8:27 PM MDT
Civil Twilight 5:38 AM MDT 8:58 PM MDT
Nautical Twilight 5:00 AM MDT 9:37 PM MDT
Astronomical Twilight 4:17 AM MDT 10:19 PM MDT
Moon 3:25 PM MDT (5/9) 3:16 AM MDT (5/9)
Length of Visible Light 15h 20m
Length of Day
14h 18m
Waxing Gibbous, 74% of the Moon is Illuminated
May 9
Waxing Gibbous
May 14
Full
May 21
Last Quarter
May 28
New
Jun 5
First Quarter

Hourly Weather History & Observations

Time (MDT) Temp. Windchill Dew Point Humidity Pressure Visibility Wind Dir Wind Speed Gust Speed Precip Events Conditions
12:15 AM 39.2 °F 30.8 °F 24.3 °F 55% 30.01 in 10.0 mi SW 15.0 mph - N/A   Clear
12:35 AM 39.0 °F 31.0 °F 24.8 °F 57% 30.00 in 10.0 mi SW 13.8 mph - N/A   Clear
12:55 AM 39.2 °F 30.8 °F 24.8 °F 56% 30.00 in 10.0 mi SW 15.0 mph - N/A   Clear
1:15 AM 38.8 °F 31.2 °F 25.2 °F 58% 30.00 in 10.0 mi SSW 12.7 mph - N/A   Clear
1:35 AM 37.8 °F 30.2 °F 25.5 °F 61% 29.98 in 10.0 mi SW 11.5 mph - N/A   Clear
1:55 AM 40.6 °F 33.0 °F 24.6 °F 53% 29.98 in 10.0 mi SW 13.8 mph - N/A   Scattered Clouds
2:15 AM 41.7 °F 34.4 °F 24.6 °F 51% 29.98 in 10.0 mi SW 13.8 mph - N/A   Mostly Cloudy
2:35 AM 42.3 °F 34.1 °F 25.7 °F 52% 29.98 in 10.0 mi WSW 17.3 mph 24.2 mph N/A   Overcast
2:55 AM 41.5 °F 32.9 °F 27.7 °F 58% 29.98 in 10.0 mi West 18.4 mph 23.0 mph N/A   Mostly Cloudy
3:15 AM 41.0 °F 33.1 °F 29.1 °F 63% 29.97 in 10.0 mi WSW 15.0 mph 19.6 mph N/A   Overcast
3:35 AM 41.7 °F 34.1 °F 29.3 °F 61% 29.98 in 10.0 mi WSW 15.0 mph - N/A   Overcast
3:55 AM 41.9 °F 35.0 °F 30.9 °F 65% 29.97 in 10.0 mi WSW 12.7 mph - N/A   Overcast
4:35 AM 41.7 °F 34.8 °F 31.8 °F 68% 29.96 in 10.0 mi SW 12.7 mph 20.7 mph N/A   Overcast
4:55 AM 40.1 °F 33.6 °F 32.0 °F 73% 29.95 in 10.0 mi SSW 10.4 mph - N/A   Mostly Cloudy
5:15 AM 39.6 °F 34.0 °F 32.0 °F 74% 29.94 in 10.0 mi SSW 8.1 mph - N/A   Scattered Clouds
5:35 AM 40.6 °F 33.0 °F 30.9 °F 68% 29.94 in 10.0 mi SW 13.8 mph - N/A   Scattered Clouds
5:55 AM 41.0 °F 33.1 °F 30.2 °F 65% 29.94 in 10.0 mi SW 15.0 mph - N/A   Mostly Cloudy
6:15 AM 40.1 °F 33.6 °F 30.7 °F 69% 29.94 in 10.0 mi SW 10.4 mph - N/A   Mostly Cloudy
6:35 AM 39.4 °F 33.8 °F 30.9 °F 72% 29.93 in 10.0 mi WSW 8.1 mph - N/A   Overcast
6:55 AM 39.7 °F 34.3 °F 31.1 °F 71% 29.93 in 10.0 mi WSW 8.1 mph - N/A   Overcast
7:15 AM 39.9 °F 32.9 °F 31.1 °F 71% 29.93 in 10.0 mi WSW 11.5 mph - N/A   Overcast
7:35 AM 39.6 °F 32.5 °F 31.6 °F 73% 29.94 in 10.0 mi WSW 11.5 mph - N/A   Overcast
7:55 AM 40.3 °F 31.6 °F 32.0 °F 72% 29.94 in 10.0 mi WSW 17.3 mph - N/A   Overcast
8:15 AM 40.8 °F 32.6 °F 33.8 °F 76% 29.94 in 10.0 mi SW 16.1 mph 25.3 mph N/A   Mostly Cloudy
8:35 AM 41.7 °F 33.4 °F 34.0 °F 74% 29.95 in 10.0 mi SW 17.3 mph 26.5 mph N/A   Overcast
8:55 AM 42.1 °F 32.6 °F 34.5 °F 75% 29.95 in 10.0 mi SW 23.0 mph 29.9 mph N/A   Overcast
9:15 AM 43.3 °F 34.0 °F 34.9 °F 72% 29.95 in 10.0 mi SW 24.2 mph 29.9 mph N/A   Overcast
9:35 AM 43.2 °F 34.5 °F 35.1 °F 73% 29.95 in 10.0 mi SW 20.7 mph 31.1 mph N/A   Overcast
9:55 AM 41.0 °F 30.2 °F 36.1 °F 83% 29.95 in 7.0 mi SW 27.6 mph 38.0 mph N/A Rain Light Rain
10:15 AM 41.4 °F 31.6 °F 36.9 °F 84% 29.94 in 10.0 mi WSW 23.0 mph 32.2 mph N/A   Mostly Cloudy
10:35 AM 43.5 °F 34.7 °F 37.4 °F 79% 29.94 in 10.0 mi WSW 21.9 mph 29.9 mph N/A   Overcast
10:55 AM 43.7 °F 34.5 °F 36.5 °F 76% 29.94 in 10.0 mi WSW 24.2 mph 34.5 mph N/A   Overcast
11:15 AM 43.7 °F 35.2 °F 36.3 °F 75% 29.94 in 10.0 mi WSW 20.7 mph 32.2 mph N/A   Overcast
11:35 AM 43.2 °F 34.0 °F 36.3 °F 77% 29.94 in 10.0 mi WSW 23.0 mph 29.9 mph N/A   Overcast
11:55 AM 46.4 °F 37.5 °F 37.4 °F 71% 29.95 in 10.0 mi SW 27.6 mph 32.2 mph N/A   Overcast
12:15 PM 48.4 °F - 36.1 °F 63% 29.94 in 10.0 mi WSW 25.3 mph 34.5 mph N/A   Mostly Cloudy
12:35 PM 50.5 °F - 35.8 °F 57% 29.94 in 10.0 mi West 24.2 mph 33.4 mph N/A   Mostly Cloudy
12:55 PM 51.3 °F - 36.7 °F 57% 29.95 in 10.0 mi WSW 27.6 mph 38.0 mph N/A   Overcast
1:15 PM 45.5 °F 36.1 °F 37.8 °F 74% 29.95 in 10.0 mi West 28.8 mph 35.7 mph N/A   Light Drizzle
1:35 PM 48.9 °F - 37.2 °F 64% 29.94 in 10.0 mi West 24.2 mph 36.8 mph N/A   Mostly Cloudy
1:55 PM 49.1 °F - 36.5 °F 62% 29.93 in 10.0 mi WSW 27.6 mph 39.1 mph N/A   Scattered Clouds
2:15 PM 50.7 °F - 36.0 °F 57% 29.94 in 10.0 mi West 28.8 mph 46.0 mph N/A   Scattered Clouds
2:35 PM 45.0 °F 34.9 °F 38.5 °F 78% 29.96 in 5.0 mi WNW 32.2 mph 44.9 mph N/A Rain Rain
2:55 PM 41.4 °F 33.3 °F 40.3 °F 96% 29.96 in 4.0 mi WNW 16.1 mph 28.8 mph N/A Rain Light Rain
3:15 PM 44.1 °F 36.5 °F 41.9 °F 92% 29.95 in 10.0 mi West 17.3 mph 23.0 mph N/A   Overcast
3:35 PM 45.7 °F 38.3 °F 41.5 °F 85% 29.95 in 10.0 mi West 18.4 mph 26.5 mph N/A   Overcast
3:55 PM 44.6 °F 37.4 °F 39.4 °F 82% 29.94 in 10.0 mi West 16.1 mph 21.9 mph N/A   Overcast
4:15 PM 44.6 °F 35.7 °F 38.3 °F 79% 29.95 in 10.0 mi WSW 24.2 mph 33.4 mph N/A   Overcast
4:35 PM 46.4 °F 37.7 °F 37.4 °F 71% 29.94 in 10.0 mi WSW 26.5 mph 33.4 mph N/A   Mostly Cloudy
4:55 PM 48.2 °F - 38.3 °F 69% 29.94 in 10.0 mi WSW 25.3 mph 33.4 mph N/A   Scattered Clouds
5:15 PM 48.9 °F - 36.3 °F 62% 29.94 in 10.0 mi WSW 25.3 mph 32.2 mph N/A   Clear
5:35 PM 48.2 °F - 35.1 °F 60% 29.95 in 10.0 mi West 18.4 mph 29.9 mph N/A   Scattered Clouds
5:55 PM 48.0 °F - 34.3 °F 59% 29.96 in 10.0 mi WSW 24.2 mph 31.1 mph N/A   Mostly Cloudy
6:15 PM 44.1 °F 38.6 °F 35.2 °F 71% 29.98 in 10.0 mi NW 10.4 mph 27.6 mph N/A   Overcast
6:35 PM 40.6 °F 33.0 °F 36.3 °F 85% 29.98 in 10.0 mi WNW 13.8 mph 19.6 mph N/A Rain Light Rain
6:55 PM 40.1 °F 35.3 °F 38.5 °F 94% 29.98 in 10.0 mi WNW 6.9 mph - N/A   Mostly Cloudy
7:15 PM 40.6 °F 37.5 °F 38.7 °F 93% 29.98 in 10.0 mi WNW 4.6 mph - N/A   Overcast
7:35 PM 40.8 °F 34.5 °F 38.5 °F 91% 29.98 in 10.0 mi NW 10.4 mph - N/A   Overcast
7:55 PM 39.7 °F 34.9 °F 37.2 °F 91% 29.97 in 10.0 mi WNW 6.9 mph - N/A   Mostly Cloudy
8:15 PM 40.1 °F 35.3 °F 37.4 °F 90% 29.97 in 10.0 mi West 6.9 mph - N/A   Scattered Clouds
8:35 PM 38.7 °F 34.3 °F 37.0 °F 94% 29.98 in 10.0 mi West 5.8 mph - N/A   Scattered Clouds
8:55 PM 39.2 °F 33.6 °F 36.1 °F 89% 29.98 in 10.0 mi West 8.1 mph - N/A   Clear
9:15 PM 38.7 °F 32.9 °F 35.6 °F 89% 29.98 in 10.0 mi West 8.1 mph - N/A   Scattered Clouds
9:35 PM 39.6 °F 34.7 °F 36.1 °F 88% 29.98 in 10.0 mi WSW 6.9 mph - N/A   Overcast
9:55 PM 40.1 °F 30.7 °F 36.3 °F 86% 30.02 in 10.0 mi West 19.6 mph 25.3 mph N/A Rain Light Rain
10:15 PM 35.1 °F 24.1 °F 34.5 °F 98% 30.04 in 1.2 mi WNW 19.6 mph 25.3 mph N/A Snow Light Snow
10:35 PM 33.8 °F 27.7 °F 33.4 °F 99% 30.03 in 0.2 mi WNW 6.9 mph 17.3 mph N/A Snow Snow
10:55 PM 33.4 °F 28.1 °F 33.4 °F 100% 30.03 in 0.2 mi West 5.8 mph - N/A Fog Fog
11:15 PM 33.1 °F 26.1 °F 33.1 °F 100% 30.03 in 0.5 mi SW 8.1 mph - N/A Fog Fog
11:35 PM 32.9 °F 25.9 °F 32.9 °F 100% 30.02 in 10.0 mi SW 8.1 mph - N/A   Scattered Clouds
11:55 PM 32.9 °F 25.3 °F 32.9 °F 100% 30.02 in 10.0 mi SW 9.2 mph - N/A   Clear